This is the latest recevied weather packets stored in our database for station/object N2QKV-13. If no packets are shown the sender has not sent any weather packets the latest 10 day(s).
| Time | Temp. | Humidity | Pressure | Rain* | Wind** | Luminosity | Snow |
|---|---|---|---|---|---|---|---|
| 1777529404 | 9.44° C | 92% | 1008.4 hPa | 0.76 mm | - | - | - |
| 1777529104 | 8.89° C | 92% | 1008.1 hPa | 0.76 mm | - | - | - |
| 1777528804 | 8.89° C | 92% | 1008.1 hPa | 0.51 mm | - | - | - |
| 1777528504 | 8.89° C | 92% | 1008.5 hPa | 0.76 mm | - | - | - |
| 1777528204 | 8.89° C | 92% | 1008.5 hPa | 1.27 mm | - | - | - |
| 1777527904 | 8.89° C | 92% | 1008.7 hPa | 2.29 mm | - | - | - |
| 1777527603 | 8.89° C | 92% | 1008.9 hPa | 3.05 mm | - | - | - |
| 1777527303 | 8.89° C | 92% | 1009 hPa | 3.56 mm | - | - | - |
| 1777527004 | 8.89° C | 92% | 1008.9 hPa | 3.81 mm | - | - | - |
| 1777526704 | 8.89° C | 92% | 1008.5 hPa | 4.57 mm | - | - | - |
| 1777526404 | 8.89° C | 92% | 1008.5 hPa | 5.33 mm | - | - | - |
| 1777526104 | 8.89° C | 92% | 1008.9 hPa | 5.84 mm | - | - | - |
| 1777525803 | 8.89° C | 92% | 1008.7 hPa | 6.35 mm | - | - | - |
| 1777525504 | 8.89° C | 92% | 1008.8 hPa | 6.86 mm | - | - | - |
| 1777525204 | 8.89° C | 92% | 1009.2 hPa | 7.11 mm | - | - | - |
| 1777524904 | 9.44° C | 92% | 1009.3 hPa | 2.03 mm | - | - | - |
| 1777524604 | 9.44° C | 92% | 1009.7 hPa | 1.52 mm | - | - | - |
| 1777524004 | 9.44° C | 92% | 1010.1 hPa | 4.32 mm | - | - | - |
| 1777523703 | 9.44° C | 92% | 1010 hPa | 4.06 mm | - | - | - |
| 1777523404 | 9.44° C | 92% | 1010 hPa | 4.06 mm | - | - | - |
| 1777523104 | 9.44° C | 92% | 1010.3 hPa | 3.3 mm | - | - | - |
| 1777522804 | 9.44° C | 92% | 1010.6 hPa | 2.79 mm | - | - | - |
| 1777522503 | 9.44° C | 92% | 1010.6 hPa | 2.54 mm | - | - | - |
| 1777522204 | 9.44° C | 92% | 1010.5 hPa | 2.03 mm | - | - | - |
| 1777521904 | 9.44° C | 92% | 1010 hPa | 1.78 mm | - | - | - |
* Rain latest hour (hover to see other rain measurements)
** Current wind speed in m/s (hover to see current wind gust speed)